Location: Sternwarte Stuttgart
(48.7670°N, 9.1830°E)
Time: 16:14:48
(UTC+02:00)

Cosmos 1992 Rocket - Pass Details

Date: 24 January 2019
Orbit: 759 x 766 km, 74.0° (Epoch: 19 April)

Event Time Altitude Azimuth Distance (km) Brightness Sun altitude
Exits shadow 06:03:44 14° 338° (NNW) 2,027 5.9 -19.5°
Maximum altitude 06:08:15 86° 67° (ENE) 773 4.0 -18.7°
Drops below altitude 10° 06:13:29 10° 157° (SSE) 2,298 6.9 -17.9°
Sets 06:15:50 0° 158° (SSE) 3,220 7.7 -17.5°
